Location: Newark
(41.8083°N, 72.2500°W)
Time: 11:01:37
(UTC+00:00)

Envisat - Visible Passes

Search period start: 25 September 2020 00:00
Search period end: 05 October 2020 00:00
Orbit: 764 x 766 km, 98.1° (Epoch: 24 September)

Date Brightness Start Highest point End Pass type
(mag) Time Alt. Az. Time Alt. Az. Time Alt. Az.
25 Sep 5.2 10:12:17 10° NNE 10:16:50 32° E 10:21:21 10° SSE visible
25 Sep 5.9 23:07:01 10° SW 23:10:55 22° W 23:14:52 10° NW visible
26 Sep 6.2 09:36:56 10° ENE 09:39:43 15° E 09:42:28 10° ESE visible
27 Sep 6.5 23:34:32 10° WSW 23:36:39 12° W 23:38:46 10° WNW visible
28 Sep 5.6 10:01:12 10° NE 10:05:24 26° E 10:09:35 10° SSE visible
28 Sep 5.5 22:55:09 10° SSW 22:59:28 28° W 23:03:49 10° NW visible
29 Sep 6.5 09:26:43 10° ENE 09:28:12 11° E 09:29:41 10° ESE visible
30 Sep 6.2 23:22:03 10° SW 23:25:09 16° W 23:28:15 10° NW visible
01 Oct 6.0 09:50:12 10° NE 09:53:56 20° E 09:57:39 10° SE visible
03 Oct 5.0 10:14:56 10° NNE 10:19:35 35° E 10:24:12 10° SSE visible
03 Oct 6.0 23:09:56 10° SW 23:13:40 20° W 23:17:25 10° NW visible
04 Oct 6.2 09:39:23 10° NE 09:42:28 16° E 09:45:32 10° SE visible
